Weather History for Palm Springs, CA

Change the Weather History Date:

Wednesday, February 13, 2013

  Actual Average Record
Temperature  
Mean Temperature 60 °F 60 °F  
Max Temperature 76 °F 72 °F 93 °F (1957)
Min Temperature 44 °F 48 °F 29 °F (1948)
Degree Days  
Heating Degree Days 5 6  
Month to date heating degree days 76 84  
Since 1 July heating degree days 652 711  
Cooling Degree Days 0 1  
Month to date cooling degree days 8 12  
Year to date cooling degree days 9 20  
Growing Degree Days 10 (Base 50)    
Moisture  
Dew Point 24 °F    
Average Humidity 30    
Maximum Humidity 49    
Minimum Humidity 11    
Precipitation  
Precipitation 0.00 in 0.05 in 0.84 in (1992)
Month to date precipitation 0.03 0.37  
Year to date precipitation 0.64 1.37  
Since 1 July precipitation 1.86 4.17  
Snow  
Snow 0.00 in - - ()
Month to date snowfall 0.0  
Year to date snowfall 0.0  
Since 1 July snowfall 0.0  
Snow Depth 0.00 in    
Sea Level Pressure  
Sea Level Pressure 30.17 in    
Wind  
Wind Speed 4 mph (NNW)    
Max Wind Speed 12 mph    
Max Gust Speed 14 mph    
Visibility 10 miles    
Events      
T = Trace of Precipitation, MM = Missing Value Source: NWS Daily Summary

Daily Weather History Graph

Daily Weather History Graph

Search for Another Location

Airport:

Trip Planner

Search our weather history database for the weather conditions in past years. The results will help you decide how hot, cold, wet, or windy it might be!

Date:

Astronomy

Feb. 13, 2013 Rise Set
Actual Time 6:32 AM PST 5:28 PM PST
Civil Twilight 6:06 AM PST 5:54 PM PST
Nautical Twilight 5:37 AM PST 6:23 PM PST
Astronomical Twilight 5:08 AM PST 6:52 PM PST
Moon 8:17 AM PST (2/13) 9:21 PM PST (2/13)
Length of Visible Light 11h 47m
Length of Day
10h 56m
Waxing Crescent, 14% of the Moon is Illuminated
Feb 13
Waxing Crescent
Feb 17
First Quarter
Feb 25
Full
Mar 4
Last Quarter
Mar 11
New

Hourly Weather History & Observations

Time (PST) Temp. Windchill Dew Point Humidity Pressure Visibility Wind Dir Wind Speed Gust Speed Precip Events Conditions
12:53 AM 46.9 °F - 26.1 °F 44% 30.25 in 10.0 mi North 5.8 mph - N/A   Clear
1:53 AM 46.9 °F - 26.1 °F 44% 30.23 in 10.0 mi NW 6.9 mph - N/A   Clear
2:53 AM 46.0 °F 41.4 °F 26.1 °F 46% 30.22 in 10.0 mi NNW 9.2 mph - N/A   Unknown
3:53 AM 44.1 °F - 27.0 °F 51% 30.22 in 10.0 mi Calm Calm - N/A   Clear
4:53 AM 45.0 °F 41.2 °F 25.0 °F 46% 30.22 in 10.0 mi NNW 6.9 mph - N/A   Clear
5:53 AM 46.9 °F - 24.1 °F 41% 30.22 in 10.0 mi NNW 8.1 mph - N/A   Clear
6:53 AM 46.0 °F 44.8 °F 24.1 °F 42% 30.23 in 10.0 mi WNW 3.5 mph - N/A   Clear
7:53 AM 48.9 °F - 25.0 °F 39% 30.25 in 10.0 mi NW 5.8 mph - N/A   Clear
8:53 AM 57.0 °F - 23.0 °F 27% 30.24 in 10.0 mi WNW 4.6 mph - N/A   Clear
9:53 AM 61.0 °F - 26.1 °F 26% 30.24 in 10.0 mi Calm Calm - N/A   Clear
10:53 AM 64.9 °F - 19.9 °F 18% 30.22 in 10.0 mi Calm Calm - N/A   Clear
11:53 AM 70.0 °F - 18.0 °F 14% 30.19 in 10.0 mi Calm Calm - N/A   Clear
12:53 PM 71.1 °F - 16.0 °F 12% 30.14 in 10.0 mi ESE 5.8 mph - N/A   Clear
1:53 PM 73.9 °F - 18.0 °F 12% 30.11 in 10.0 mi SSW 5.8 mph - N/A   Clear
2:53 PM 75.0 °F - 17.1 °F 11% 30.09 in 10.0 mi Calm Calm - N/A   Clear
3:53 PM 75.9 °F - 18.0 °F 11% 30.09 in 10.0 mi Variable 3.5 mph - N/A   Clear
4:53 PM 72.0 °F - 25.0 °F 17% 30.08 in 10.0 mi East 6.9 mph - N/A   Clear
5:53 PM 66.0 °F - 26.1 °F 22% 30.10 in 10.0 mi ESE 8.1 mph - N/A   Clear
6:53 PM 62.1 °F - 26.1 °F 25% 30.12 in 10.0 mi Calm Calm - N/A   Clear
7:53 PM 59.0 °F - 27.0 °F 29% 30.13 in 10.0 mi Calm Calm - N/A   Clear
8:53 PM 57.0 °F - 30.0 °F 36% 30.14 in 10.0 mi Calm Calm - N/A   Clear
9:53 PM 54.0 °F - 30.9 °F 41% 30.14 in 10.0 mi North 6.9 mph - N/A   Clear
10:53 PM 55.0 °F - 30.9 °F 40% 30.14 in 10.0 mi NW 8.1 mph - N/A   Clear
11:53 PM 53.1 °F - 30.0 °F 41% 30.14 in 10.0 mi NNW 8.1 mph - N/A   Clear